User: anonymous
Location: Fort Hays State University
(38.8712°N, 99.3432°W)
Time: 05:43:03
(UTC-05:00)
Language:

Cosmos 2279 Rocket - Orbit

View from above orbital plane
View from above orbital plane
View from above satellite
View from above satellite

Ground track
Ground track

The orbit data is extracted from the following two-line orbital elements,

1 23093U 94024B   14231.83466886  .00000036  00000-0  20270-4 0  8898
2 23093 082.9505 162.2266 0010511 025.8849 334.2832 13.77624168489299
Epoch (UTC): 19 August 2014 20:01:55
Eccentricity: 0.0010511
inclination: 82.9505°
perigee height: 964 km
apogee height: 980 km
right ascension of ascending node: 162.2266°
argument of perigee: 25.8849°
revolutions per day: 13.77624168
mean anomaly at epoch: 334.2832°
orbit number at epoch: 48929

The dashed part of the orbit path shows where the satellite is in the earth's shadow,  

DLR